KUIPER-00540

导读

KUIPER-00540(NORAD编号69609)是亚马逊柯伊伯(Project Kuiper)低轨互联网星座的组网卫星,于2026年上半年发射入轨,属于该项目建设中期部署的通信卫星。其运行于约630公里高度的低地轨道,轨道倾角约51.9度,单星轨道周期约97分钟,在轨状态稳定。作为柯伊伯星座的组成部分,该卫星承担高速通信载荷,目标是为偏远乡村、海上等网络覆盖不足区域提供低延迟、高带宽的互联网接入服务,同时支撑机载通信等商业场景应用,是亚马逊推进全球数字连接布局的重要组成节点。

Basic Information
目录编号:
69609
目录名称:
KUIPER-00540
国际标识:
2026-140T
轨道中心:
EARTH
卫星名称:
KUIPER-00540
卫星全名:
KUIPER-00540
卫星状态:
在轨 (已飞行70 天)
发射日期:
2026-06-17 UTC
国别 :
美国 (US)
星等 :
--
Orbit Information
数据来源 国际轨道数据
星历时间: 2026-08-26T05:18:07+0800
14小时前
查看轨道信息
半长轴: 6830.818km
偏心率: 0.0006085
轨道倾角: 51.880°
近地点辐角 164.068°
升交点赤经 61.905°
平近点角 196.050°
近地点: 448.524km
远地点: 456.838km
周期: 93.642分钟
每日圈数: 15.377784
Detailed Information
使用方式:
暂无
2D Orbit Map
3D Orbit Map
Orbit Altitude Analysis Chart
Orbit Inclination Analysis Chart
Orbit Comprehensive Analysis Chart
View Comprehensive Chart